STARLINK-3109, 49143

Orbit data source: Space-Track

STARLINK-3109, 49143 is a payload satellite owned by SpaceX/Seattle (US) in LEO that was launched on Tue, 14 Sep 2021 UTC via an FALCON 9 launch vehicle from the Air Force Western Test Range (AFWTR). Payload-class satellites include a variety of spacecraft equipped with specific instruments for various scientific and technological missions. These include communications satellites like Starlink; space stations such as the ISS; scientific satellites like the Hubble; Earth observation satellites from companies like Planet Labs, Umbra, and HawkEye 360; GPS; miniature CubeSats for education and research; and military/defense satellites.

Loading next visibility...
Identifier
49143, 2021-082P
Orbit
LEO
Country
Flag of USUS
Related business
Manufacturer
SpaceX/Seattle
Mission
Operational Commercial Communications
Bus & Motor
STARLINK, Unknown motor
Mass
297 kg wet, ~275 kg dry
Launch date (UTC)
2021-09-14 (4 years ago)
Launch vehicle
FALCON 9
Launch site
Air Force Western Test Range (AFWTR)
Object type
Payload
Rocket body
Debris
Shape & HBR
Box + 1 Pan, 10.1 m
Radar Cross Section
13.562 m², Large (>1 m²)

Expand to show TLE details & history
Last TLE update: 19 hours ago

TLE from 19 hours ago
0 STARLINK-3109
1 49143U 21082P   26071.94955578 -.00000473  00000-0 -32559-4 0  9996
2 49143  69.9972 267.0336 0002916 273.9985  86.0840 14.97514062248057
Epoch: 2026-03-12T22:47Z
TLE epoch observation values (Epoch: 2026-03-12T22:47:21.619Z)
Latitude
-0.00004°
Longitude
114.6014°
Altitude
576.865 km
Speed
7.573 km/s
True Right ascension
17h 48m 08s
True Declination
0° 00' 00"
Sunlit
Object was in daylight at epoch
Visualization orbit readout
Latitude
Unknown
Longitude
Unknown
Altitude
Unknown
Speed
Unknown
Apparent Right ascension
Unknown
Apparent Declination
Unknown
Sunlit
N/A
Visualization observer readout
Local Sidereal Time
21:53:03
Azimuth
Unknown
Elevation
Unknown
Doppler factor
Unknown
Orbital elements
Apogee altitude
574.556 km
Perigee altitude
570.503 km
Semi-major axis
6,950.667 km
Eccentricity
0.00029
Inclination
69.9972°
RAAN
267.0336°
Arg. of periapsis
273.9985°
True anomaly
86.11734°
Mean anomaly
86.084°
Eccentric anomaly
86.10067°
Mean motion
3.74545 °/min
Orbital period
96.12 mins
BSTAR
-0.000032559
Loading maneuver chart data...
Computing Atmospheric mass density...

Documentation

Showing up to 5 results
|